Change the Weather History Date:

Thursday, March 12, 2015

  Actual Average Record
Temperature  
Mean Temperature 59 °F 53 °F  
Max Temperature 76 °F 64 °F 81 °F (2007)
Min Temperature 42 °F 42 °F 32 °F (2009)
Degree Days  
Heating Degree Days 6    
Month to date heating degree days 120  
Since 1 July heating degree days 1576  
Cooling Degree Days 0    
Month to date cooling degree days 0  
Year to date cooling degree days 0  
Growing Degree Days 8 (Base 50)    
Moisture  
Dew Point 47 °F    
Average Humidity 69    
Maximum Humidity 100    
Minimum Humidity 38    
Precipitation  
Precipitation T in 0.16 in 0.12 in (2006)
Month to date precipitation 0.02 2.49  
Year to date precipitation 4.34 15.94  
Sea Level Pressure  
Sea Level Pressure 30.21 in    
Wind  
Wind Speed 3 mph (WNW)    
Max Wind Speed 9 mph    
Max Gust Speed 12 mph    
Visibility 6 miles    
Events Fog , Rain    
T = Trace of Precipitation, MM = Missing Value Source: NWS Daily Summary

Daily Weather History Graph

Daily Weather History Graph

Search for Another Location

Airport or City:

Trip Planner

Search our weather history database for the weather conditions in past years. The results will help you decide how hot, cold, wet, or windy it might be!

Date:

Astronomy

Mar. 12, 2015 Rise Set
Actual Time 7:27 AM PDT 7:15 PM PDT
Civil Twilight 7:00 AM PDT 7:41 PM PDT
Nautical Twilight 6:30 AM PDT 8:12 PM PDT
Astronomical Twilight 5:59 AM PDT 8:43 PM PDT
Moon 1:02 AM PDT (3/12) 11:28 AM PDT (3/12)
Length of Visible Light 12h 40m
Length of Day
11h 48m
Waning Gibbous, 60% of the Moon is Illuminated
Mar 12
Waning Gibbous
Mar 13
Last Quarter
Mar 20
New
Mar 27
First Quarter
Apr 4
Full

Hourly Weather History & Observations

Time (PDT) Temp. Windchill Dew Point Humidity Pressure Visibility Wind Dir Wind Speed Gust Speed Precip Events Conditions
12:53 AM 46.9 °F - 46.9 °F 100% 30.25 in 7.0 mi Calm Calm - N/A   Clear
1:53 AM 46.9 °F - 46.9 °F 100% 30.24 in 3.0 mi NNW 4.6 mph - N/A   Clear
2:53 AM 46.0 °F 43.1 °F 46.0 °F 100% 30.25 in 2.5 mi WNW 5.8 mph - N/A   Clear
3:10 AM 46.4 °F 44.3 °F 46.4 °F 100% 30.26 in 1.5 mi WNW 4.6 mph - N/A   Clear
3:16 AM 46.4 °F 44.3 °F 46.4 °F 100% 30.26 in 3.0 mi NW 4.6 mph - N/A   Clear
3:27 AM 44.6 °F - 44.6 °F 100% 30.26 in 1.5 mi Calm Calm - N/A   Partly Cloudy
3:38 AM 46.4 °F 45.2 °F 46.4 °F 100% 30.25 in 3.0 mi NNE 3.5 mph - N/A   Partly Cloudy
3:53 AM 46.9 °F - 46.0 °F 97% 30.24 in 7.0 mi NNW 3.5 mph - N/A   Partly Cloudy
3:59 AM 46.4 °F 44.3 °F 46.4 °F 100% 30.26 in 1.8 mi NNW 4.6 mph - N/A   Clear
4:16 AM 44.6 °F - 44.6 °F 100% 30.25 in 2.5 mi Calm Calm - N/A   Clear
4:35 AM 46.4 °F 45.2 °F 44.6 °F 93% 30.25 in 4.0 mi NW 3.5 mph - N/A   Clear
4:53 AM 46.0 °F - 45.0 °F 96% 30.22 in 8.0 mi Calm Calm - N/A   Clear
5:17 AM 44.6 °F - 44.6 °F 100% 30.24 in 2.5 mi Calm Calm - N/A   Partly Cloudy
5:34 AM 42.8 °F 40.1 °F 42.8 °F 100% 30.25 in 1.2 mi West 4.6 mph - N/A   Mostly Cloudy
5:43 AM 42.8 °F 41.1 °F 42.8 °F 100% 30.25 in 0.8 mi West 3.5 mph - N/A   Mist
5:53 AM 44.1 °F 42.5 °F 43.0 °F 96% 30.23 in 0.5 mi WNW 3.5 mph - N/A Fog Fog
6:35 AM 44.6 °F 43.1 °F 42.8 °F 93% 30.25 in 1.2 mi West 3.5 mph - N/A   Partly Cloudy
6:45 AM 42.8 °F - 42.8 °F 100% 30.25 in 0.8 mi Calm Calm - N/A   Mist
6:53 AM 42.1 °F - 42.1 °F 100% 30.24 in 0.5 mi Calm Calm - N/A Fog Fog
7:00 AM 42.8 °F - 42.8 °F 100% 30.25 in 10.0 mi Calm Calm - N/A Fog Patches of Fog
7:53 AM 42.1 °F 40.2 °F 42.1 °F 100% 30.24 in 10.0 mi West 3.5 mph - N/A Fog Patches of Fog
8:53 AM 48.9 °F - 48.0 °F 97% 30.25 in 10.0 mi Calm Calm - N/A   Clear
9:53 AM 55.0 °F - 51.1 °F 86% 30.25 in 10.0 mi NW 3.5 mph - N/A   Scattered Clouds
10:53 AM 61.0 °F - 53.1 °F 75% 30.25 in 10.0 mi Variable 4.6 mph - N/A   Clear
11:53 AM 66.0 °F - 52.0 °F 60% 30.23 in 10.0 mi Calm Calm - N/A   Clear
12:53 PM 71.1 °F - 52.0 °F 51% 30.22 in 10.0 mi Calm Calm - N/A   Scattered Clouds
1:53 PM 73.9 °F - 51.1 °F 45% 30.17 in 10.0 mi NNE 3.5 mph - 0.00 in   Scattered Clouds
2:53 PM 75.0 °F - 48.9 °F 40% 30.14 in 10.0 mi Calm Calm - N/A   Clear
3:53 PM 75.9 °F - 48.0 °F 37% 30.12 in 10.0 mi West 5.8 mph - 0.00 in   Scattered Clouds
4:53 PM 75.0 °F - 50.0 °F 41% 30.11 in 10.0 mi SW 6.9 mph - 0.00 in Rain Light Rain
5:53 PM 73.0 °F - 50.0 °F 44% 30.10 in 10.0 mi SW 4.6 mph - 0.00 in   Scattered Clouds
6:53 PM 66.0 °F - 55.0 °F 68% 30.10 in 10.0 mi SSE 4.6 mph - N/A   Clear
7:53 PM 61.0 °F - 53.1 °F 75% 30.11 in 10.0 mi SSE 5.8 mph - N/A   Clear
8:53 PM 59.0 °F - 52.0 °F 78% 30.13 in 10.0 mi South 3.5 mph - N/A   Clear
9:53 PM 57.0 °F - 51.1 °F 81% 30.14 in 10.0 mi South 3.5 mph - N/A   Clear
10:53 PM 53.1 °F - 48.9 °F 86% 30.14 in 10.0 mi Calm Calm - N/A   Clear
11:53 PM 52.0 °F - 48.9 °F 89% 30.15 in 10.0 mi SE 3.5 mph - N/A   Clear